| time (UTC) | temp F | wind direction | speed MPH | gust MPH | rain 1hr in | rain 24hr in | rain mn in | humidity % | barometer mb |
| 20260508193913 | 61 | 240 | 0.0 | 1.0 | 0.00 | 0.00 | 0.00 | 72 | 1017.3 |
| 20260508193413 | 61 | 240 | 0.0 | 1.0 | 0.00 | 0.00 | 0.00 | 73 | 1017.3 |
| 20260508192912 | 62 | 81 | 0.0 | 1.0 | 0.00 | 0.00 | 0.00 | 72 | 1017.3 |
| 20260508191913 | 62 | 76 | 1.0 | 1.0 | 0.00 | 0.00 | 0.00 | 69 | 1016.9 |
| 20260508191415 | 63 | 139 | 0.0 | 0.0 | 0.00 | 0.00 | 0.00 | 70 | 1016.9 |
| 20260508190914 | 63 | 184 | 0.0 | 0.0 | 0.00 | 0.00 | 0.00 | 69 | 1016.9 |
| 20260508190413 | 63 | 229 | 0.0 | 1.0 | 0.00 | 0.00 | 0.00 | 69 | 1016.9 |
| 20260508185913 | 63 | 88 | 0.0 | 1.0 | 0.00 | 0.00 | 0.00 | 69 | 1016.7 |
| 20260508185412 | 63 | 77 | 0.0 | 1.0 | 0.00 | 0.00 | 0.00 | 68 | 1016.8 |
| 20260508184912 | 64 | 172 | 0.0 | 0.0 | 0.00 | 0.00 | 0.00 | 68 | 1016.6 |
| 20260508184413 | 64 | 211 | 0.0 | 0.0 | 0.00 | 0.00 | 0.00 | 68 | 1016.6 |
| 20260508182913 | 65 | 227 | 0.0 | 1.0 | 0.00 | 0.00 | 0.00 | 66 | 1016.3 |
| 20260508182413 | 65 | 78 | 0.0 | 1.0 | 0.00 | 0.00 | 0.00 | 65 | 1016.0 |
| 20260508181912 | 66 | 95 | 0.0 | 2.0 | 0.00 | 0.00 | 0.00 | 67 | 1016.1 |
| 20260508181412 | 66 | 248 | 0.0 | 2.0 | 0.00 | 0.00 | 0.00 | 65 | 1015.9 |
| 20260508180912 | 65 | 86 | 0.0 | 1.0 | 0.00 | 0.00 | 0.00 | 64 | 1016.1 |
| 20260508180412 | 66 | 228 | 0.0 | 1.0 | 0.00 | 0.00 | 0.00 | 66 | 1015.9 |
| 20260508175912 | 66 | 150 | 0.0 | 1.0 | 0.00 | 0.00 | 0.00 | 64 | 1015.9 |
| 20260508175412 | 67 | 196 | 0.0 | 1.0 | 0.00 | 0.00 | 0.00 | 64 | 1015.9 |
| 20260508174913 | 67 | 77 | 0.0 | 1.0 | 0.00 | 0.00 | 0.00 | 62 | 1015.6 |
| 20260508174412 | 68 | 206 | 0.0 | 3.0 | 0.00 | 0.00 | 0.00 | 62 | 1015.6 |
| 20260508173913 | 68 | 239 | 0.0 | 3.0 | 0.00 | 0.00 | 0.00 | 59 | 1015.6 |
| 20260508173412 | 68 | 230 | 1.0 | 3.0 | 0.00 | 0.00 | 0.00 | 57 | 1015.6 |
| 20260508172913 | 68 | 201 | 0.0 | 2.0 | 0.00 | 0.00 | 0.00 | 59 | 1015.6 |
| 20260508172413 | 68 | 210 | 1.0 | 2.0 | 0.00 | 0.00 | 0.00 | 57 | 1015.5 |
| 20260508171913 | 69 | 187 | 0.0 | 1.0 | 0.00 | 0.00 | 0.00 | 59 | 1015.6 |
| 20260508170912 | 69 | 249 | 0.0 | 3.0 | 0.00 | 0.00 | 0.00 | 56 | 1015.5 |
| 20260508170412 | 69 | 256 | 1.0 | 3.0 | 0.00 | 0.00 | 0.00 | 56 | 1015.2 |
| 20260508165912 | 70 | 253 | 1.0 | 3.0 | 0.00 | 0.00 | 0.00 | 55 | 1015.3 |
| 20260508165415 | 70 | 247 | 1.0 | 3.0 | 0.00 | 0.00 | 0.00 | 55 | 1015.6 |
| 20260508164913 | 70 | 238 | 1.0 | 3.0 | 0.00 | 0.00 | 0.00 | 55 | 1015.2 |
| 20260508164414 | 70 | 252 | 0.0 | 3.0 | 0.00 | 0.00 | 0.00 | 54 | 1015.2 |
| 20260508162912 | 70 | 255 | 1.0 | 3.0 | 0.00 | 0.00 | 0.00 | 53 | 1015.2 |
| 20260508162413 | 70 | 249 | 1.0 | 3.0 | 0.00 | 0.00 | 0.00 | 52 | 1015.2 |
| 20260508161912 | 70 | 252 | 1.0 | 3.0 | 0.00 | 0.00 | 0.00 | 53 | 1015.2 |
| 20260508161412 | 71 | 242 | 1.0 | 3.0 | 0.00 | 0.00 | 0.00 | 53 | 1015.1 |
| 20260508160412 | 71 | 252 | 1.0 | 3.0 | 0.00 | 0.00 | 0.00 | 53 | 1015.2 |
| 20260508155913 | 71 | 248 | 2.0 | 3.0 | 0.00 | 0.00 | 0.00 | 53 | 1015.2 |
| 20260508155414 | 71 | 243 | 2.0 | 5.0 | 0.00 | 0.00 | 0.00 | 53 | 1015.2 |
| 20260508154913 | 71 | 244 | 2.0 | 5.0 | 0.00 | 0.00 | 0.00 | 53 | 1015.2 |
| 20260508154413 | 71 | 255 | 2.0 | 5.0 | 0.00 | 0.00 | 0.00 | 54 | 1015.2 |
| 20260508153913 | 71 | 236 | 2.0 | 5.0 | 0.00 | 0.00 | 0.00 | 54 | 1014.9 |
| 20260508153414 | 71 | 228 | 3.0 | 5.0 | 0.00 | 0.00 | 0.00 | 54 | 1015.2 |
| 20260508152412 | 71 | 243 | 3.0 | 7.0 | 0.00 | 0.00 | 0.00 | 54 | 1015.2 |
| 20260508151913 | 72 | 241 | 4.0 | 7.0 | 0.00 | 0.00 | 0.00 | 53 | 1015.0 |
| 20260508151412 | 71 | 239 | 2.0 | 8.0 | 0.00 | 0.00 | 0.00 | 54 | 1015.2 |
| 20260508150913 | 71 | 239 | 3.0 | 9.0 | 0.00 | 0.00 | 0.00 | 54 | 1015.2 |
| 20260508150414 | 71 | 212 | 3.0 | 9.0 | 0.00 | 0.00 | 0.00 | 54 | 1015.2 |
| 20260508145912 | 71 | 255 | 3.0 | 9.0 | 0.00 | 0.00 | 0.00 | 55 | 1015.2 |
| 20260508144912 | 71 | 260 | 5.0 | 8.0 | 0.00 | 0.00 | 0.00 | 54 | 1015.2 |
| 20260508144416 | 72 | 252 | 3.0 | 7.0 | 0.00 | 0.00 | 0.00 | 54 | 1015.2 |
| 20260508143915 | 72 | 281 | 2.0 | 8.0 | 0.00 | 0.00 | 0.00 | 53 | 1015.2 |
| 20260508143413 | 72 | 273 | 3.0 | 8.0 | 0.00 | 0.00 | 0.00 | 53 | 1014.9 |
| 20260508142912 | 73 | 206 | 3.0 | 8.0 | 0.00 | 0.00 | 0.00 | 52 | 1015.2 |
| 20260508141913 | 74 | 263 | 3.0 | 7.0 | 0.00 | 0.00 | 0.00 | 49 | 1015.2 |
| 20260508141413 | 73 | 275 | 2.0 | 7.0 | 0.00 | 0.00 | 0.00 | 50 | 1015.2 |
| 20260508140915 | 74 | 217 | 3.0 | 7.0 | 0.00 | 0.00 | 0.00 | 48 | 1015.2 |
| 20260508140413 | 75 | 222 | 3.0 | 9.0 | 0.00 | 0.00 | 0.00 | 48 | 1014.9 |
| 20260508135914 | 74 | 239 | 2.0 | 9.0 | 0.00 | 0.00 | 0.00 | 49 | 1015.2 |
| 20260508135413 | 73 | 240 | 5.0 | 9.0 | 0.00 | 0.03 | 0.00 | 49 | 1015.2 |
| 20260508134913 | 74 | 237 | 5.0 | 9.0 | 0.00 | 0.13 | 0.00 | 49 | 1015.2 |
| 20260508134412 | 74 | 245 | 3.0 | 9.0 | 0.00 | 0.15 | 0.00 | 50 | 1015.2 |
| 20260508133913 | 73 | 255 | 3.0 | 9.0 | 0.00 | 0.15 | 0.00 | 50 | 1015.2 |
| 20260508133412 | 73 | 247 | 2.0 | 9.0 | 0.00 | 0.16 | 0.00 | 49 | 1015.5 |
| 20260508132913 | 73 | 251 | 3.0 | 7.0 | 0.00 | 0.16 | 0.00 | 49 | 1015.6 |
| 20260508132414 | 73 | 246 | 3.0 | 7.0 | 0.00 | 0.16 | 0.00 | 49 | 1015.6 |
| 20260508131914 | 73 | 244 | 3.0 | 7.0 | 0.00 | 0.16 | 0.00 | 50 | 1015.6 |
| 20260508131413 | 73 | 261 | 5.0 | 9.0 | 0.00 | 0.16 | 0.00 | 50 | 1015.6 |
| 20260508130912 | 74 | 255 | 1.0 | 9.0 | 0.00 | 0.16 | 0.00 | 50 | 1015.6 |
| 20260508130412 | 73 | 243 | 3.0 | 9.0 | 0.00 | 0.16 | 0.00 | 51 | 1015.6 |
| 20260508125913 | 73 | 248 | 3.0 | 7.0 | 0.00 | 0.16 | 0.00 | 51 | 1015.6 |
| 20260508125412 | 73 | 264 | 2.0 | 9.0 | 0.00 | 0.16 | 0.00 | 51 | 1015.6 |
| 20260508124913 | 73 | 253 | 3.0 | 9.0 | 0.00 | 0.16 | 0.00 | 50 | 1015.6 |
| 20260508124412 | 73 | 253 | 2.0 | 9.0 | 0.00 | 0.16 | 0.00 | 50 | 1015.9 |
| 20260508123414 | 73 | 234 | 3.0 | 8.0 | 0.00 | 0.16 | 0.00 | 50 | 1015.7 |
| 20260508122912 | 73 | 247 | 2.0 | 8.0 | 0.00 | 0.16 | 0.00 | 50 | 1015.7 |
| 20260508122413 | 72 | 223 | 3.0 | 8.0 | 0.00 | 0.16 | 0.00 | 51 | 1015.6 |
| 20260508121912 | 72 | 254 | 3.0 | 8.0 | 0.00 | 0.16 | 0.00 | 50 | 1015.9 |
| 20260508121412 | 72 | 273 | 4.0 | 8.0 | 0.00 | 0.16 | 0.00 | 50 | 1015.9 |
| 20260508120912 | 73 | 240 | 2.0 | 8.0 | 0.00 | 0.16 | 0.00 | 50 | 1015.7 |
| 20260508120413 | 73 | 186 | 1.0 | 9.0 | 0.00 | 0.16 | 0.00 | 50 | 1015.6 |
| 20260508115914 | 72 | 241 | 4.0 | 9.0 | 0.00 | 0.16 | 0.00 | 50 | 1015.7 |
| 20260508115413 | 72 | 256 | 2.0 | 9.0 | 0.00 | 0.16 | 0.00 | 51 | 1015.9 |
| 20260508114912 | 72 | 244 | 4.0 | 8.0 | 0.00 | 0.16 | 0.00 | 52 | 1015.9 |
| 20260508114414 | 72 | 235 | 4.0 | 8.0 | 0.00 | 0.16 | 0.00 | 50 | 1015.9 |
| 20260508113913 | 72 | 213 | 4.0 | 8.0 | 0.00 | 0.17 | 0.00 | 49 | 1015.9 |
| 20260508113415 | 72 | 247 | 2.0 | 8.0 | 0.00 | 0.17 | 0.00 | 49 | 1015.9 |
| 20260508112912 | 72 | 283 | 3.0 | 8.0 | 0.00 | 0.17 | 0.00 | 50 | 1015.9 |
| 20260508111913 | 72 | 237 | 2.0 | 8.0 | 0.00 | 0.17 | 0.00 | 51 | 1015.9 |
| 20260508111413 | 71 | 266 | 2.0 | 7.0 | 0.00 | 0.17 | 0.00 | 50 | 1016.1 |
| 20260508110912 | 71 | 250 | 3.0 | 9.0 | 0.00 | 0.17 | 0.00 | 51 | 1015.9 |
| 20260508110412 | 71 | 230 | 3.0 | 9.0 | 0.00 | 0.17 | 0.00 | 51 | 1016.3 |
| 20260508105912 | 71 | 250 | 3.0 | 9.0 | 0.00 | 0.17 | 0.00 | 51 | 1016.3 |
| 20260508105413 | 71 | 220 | 2.0 | 7.0 | 0.00 | 0.17 | 0.00 | 52 | 1016.3 |
| 20260508104914 | 71 | 241 | 2.0 | 9.0 | 0.00 | 0.17 | 0.00 | 53 | 1016.3 |
| 20260508104412 | 70 | 267 | 2.0 | 9.0 | 0.00 | 0.17 | 0.00 | 53 | 1016.3 |
| 20260508103914 | 70 | 265 | 3.0 | 9.0 | 0.00 | 0.17 | 0.00 | 54 | 1016.6 |
| 20260508103413 | 70 | 236 | 4.0 | 8.0 | 0.00 | 0.17 | 0.00 | 53 | 1016.6 |
| 20260508102913 | 71 | 230 | 2.0 | 7.0 | 0.00 | 0.17 | 0.00 | 53 | 1016.3 |
| 20260508102413 | 71 | 238 | 2.0 | 7.0 | 0.00 | 0.17 | 0.00 | 54 | 1016.6 |
| 20260508101913 | 71 | 248 | 2.0 | 7.0 | 0.00 | 0.17 | 0.00 | 55 | 1016.6 |
| 20260508101413 | 70 | 228 | 2.0 | 7.0 | 0.00 | 0.17 | 0.00 | 55 | 1016.6 |
| 20260508100913 | 70 | 189 | 1.0 | 7.0 | 0.00 | 0.17 | 0.00 | 55 | 1016.6 |
| 20260508100413 | 69 | 276 | 1.0 | 9.0 | 0.00 | 0.17 | 0.00 | 57 | 1016.7 |
| 20260508095913 | 69 | 255 | 1.0 | 9.0 | 0.00 | 0.17 | 0.00 | 58 | 1016.8 |
| 20260508095413 | 69 | 255 | 1.0 | 5.0 | 0.00 | 0.17 | 0.00 | 56 | 1016.6 |
| 20260508094913 | 69 | 217 | 1.0 | 3.0 | 0.00 | 0.17 | 0.00 | 57 | 1016.9 |
| 20260508094412 | 69 | 245 | 1.0 | 3.0 | 0.00 | 0.17 | 0.00 | 57 | 1016.9 |
| 20260508093913 | 68 | 232 | 0.0 | 2.0 | 0.00 | 0.17 | 0.00 | 57 | 1016.9 |
| 20260508093414 | 68 | 258 | 2.0 | 3.0 | 0.00 | 0.17 | 0.00 | 57 | 1016.9 |
| 20260508092913 | 67 | 207 | 1.0 | 3.0 | 0.00 | 0.17 | 0.00 | 58 | 1017.3 |
| 20260508092412 | 67 | 247 | 2.0 | 3.0 | 0.00 | 0.17 | 0.00 | 56 | 1017.1 |
| 20260508091912 | 67 | 92 | 0.0 | 2.0 | 0.00 | 0.17 | 0.00 | 58 | 1017.3 |
| 20260508091413 | 66 | 122 | 0.0 | 2.0 | 0.00 | 0.17 | 0.00 | 58 | 1017.3 |
| 20260508090913 | 66 | 244 | 1.0 | 2.0 | 0.00 | 0.17 | 0.00 | 59 | 1017.3 |
| 20260508085912 | 65 | 246 | 1.0 | 3.0 | 0.00 | 0.17 | 0.00 | 63 | 1017.3 |
| 20260508085413 | 65 | 237 | 2.0 | 3.0 | 0.00 | 0.17 | 0.00 | 61 | 1017.3 |
| 20260508084914 | 65 | 240 | 1.0 | 2.0 | 0.00 | 0.17 | 0.00 | 62 | 1017.3 |
| 20260508084414 | 65 | 253 | 1.0 | 2.0 | 0.00 | 0.17 | 0.00 | 63 | 1017.3 |
| 20260508083913 | 65 | 37 | 0.0 | 2.0 | 0.00 | 0.17 | 0.00 | 64 | 1017.3 |
| 20260508083414 | 64 | 69 | 0.0 | 2.0 | 0.00 | 0.17 | 0.00 | 66 | 1017.4 |
| 20260508082913 | 63 | 248 | 1.0 | 3.0 | 0.00 | 0.17 | 0.00 | 66 | 1017.3 |
| 20260508082413 | 63 | 239 | 1.0 | 3.0 | 0.00 | 0.17 | 0.00 | 67 | 1017.3 |
| 20260508081914 | 63 | 236 | 0.0 | 3.0 | 0.00 | 0.17 | 0.00 | 67 | 1017.3 |
| 20260508081412 | 63 | 245 | 2.0 | 3.0 | 0.00 | 0.17 | 0.00 | 67 | 1017.6 |
| 20260508080912 | 62 | 270 | 2.0 | 3.0 | 0.00 | 0.17 | 0.00 | 68 | 1017.3 |
| 20260508080413 | 62 | 246 | 1.0 | 2.0 | 0.00 | 0.17 | 0.00 | 68 | 1017.3 |
| 20260508075413 | 62 | 47 | 1.0 | 3.0 | 0.00 | 0.17 | 0.00 | 69 | 1017.8 |
| 20260508074913 | 62 | 49 | 1.0 | 3.0 | 0.00 | 0.17 | 0.00 | 71 | 1017.6 |
| 20260508074414 | 62 | 48 | 0.0 | 2.0 | 0.00 | 0.17 | 0.00 | 70 | 1017.6 |
| 20260508073912 | 61 | 33 | 1.0 | 2.0 | 0.00 | 0.17 | 0.00 | 71 | 1017.6 |
| 20260508073413 | 61 | 242 | 0.0 | 1.0 | 0.00 | 0.17 | 0.00 | 71 | 1017.6 |
| 20260508072913 | 60 | 47 | 1.0 | 2.0 | 0.00 | 0.17 | 0.00 | 72 | 1017.6 |
| 20260508071913 | 60 | 38 | 0.0 | 2.0 | 0.00 | 0.17 | 0.00 | 72 | 1017.7 |
| 20260508071413 | 60 | 22 | 0.0 | 2.0 | 0.00 | 0.17 | 0.00 | 74 | 1017.6 |
| 20260508070413 | 59 | 57 | 0.0 | 5.0 | 0.00 | 0.17 | 0.00 | 76 | 1017.8 |
| 20260508065414 | 58 | 51 | 1.0 | 5.0 | 0.00 | 0.17 | 0.00 | 76 | 1017.6 |
| 20260508064913 | 58 | 56 | 2.0 | 5.0 | 0.00 | 0.17 | 0.00 | 77 | 1017.4 |
| 20260508064414 | 57 | 78 | 2.0 | 5.0 | 0.00 | 0.17 | 0.00 | 77 | 1017.6 |
| 20260508063915 | 57 | 66 | 3.0 | 5.0 | 0.00 | 0.17 | 0.00 | 78 | 1017.6 |
| 20260508062915 | 57 | 122 | 0.0 | 5.0 | 0.00 | 0.17 | 0.00 | 78 | 1017.6 |
| 20260508062412 | 57 | 35 | 1.0 | 5.0 | 0.00 | 0.17 | 0.00 | 79 | 1017.6 |
| 20260508061912 | 56 | 77 | 1.0 | 2.0 | 0.00 | 0.17 | 0.00 | 80 | 1017.6 |
| 20260508061413 | 56 | 58 | 1.0 | 2.0 | 0.00 | 0.17 | 0.00 | 80 | 1017.9 |
| 20260508060912 | 56 | 49 | 0.0 | 2.0 | 0.00 | 0.17 | 0.00 | 80 | 1017.8 |
| 20260508054912 | 55 | 68 | 1.0 | 2.0 | 0.00 | 0.17 | 0.00 | 82 | 1017.6 |
| 20260508054413 | 56 | 40 | 0.0 | 8.0 | 0.00 | 0.17 | 0.00 | 81 | 1017.3 |
| 20260508053913 | 55 | 1 | 0.0 | 8.0 | 0.00 | 0.17 | 0.00 | 80 | 1017.5 |
| 20260508051914 | 54 | 52 | 1.0 | 5.0 | 0.00 | 0.17 | 0.00 | 81 | 1017.5 |
| 20260508051415 | 54 | 171 | 1.0 | 5.0 | 0.00 | 0.17 | 0.00 | 83 | 1017.6 |
| 20260508050912 | 54 | 47 | 2.0 | 5.0 | 0.00 | 0.17 | 0.00 | 84 | 1017.5 |
| 20260508050413 | 54 | 75 | 1.0 | 5.0 | 0.00 | 0.17 | 0.00 | 83 | 1017.3 |
| 20260508045913 | 54 | 62 | 1.0 | 5.0 | 0.00 | 0.17 | 0.00 | 82 | 1017.6 |
| 20260508045413 | 54 | 145 | 2.0 | 3.0 | 0.00 | 0.17 | 0.00 | 82 | 1017.6 |
| 20260508044413 | 54 | 65 | 1.0 | 3.0 | 0.00 | 0.17 | 0.00 | 82 | 1017.5 |
| 20260508043912 | 54 | 72 | 1.0 | 3.0 | 0.00 | 0.17 | 0.00 | 82 | 1017.3 |
| 20260508043414 | 54 | 90 | 0.0 | 2.0 | 0.00 | 0.17 | 0.00 | 83 | 1017.6 |
| 20260508042913 | 54 | 95 | 0.0 | 2.0 | 0.00 | 0.17 | 0.00 | 83 | 1017.3 |
| 20260508042413 | 54 | 156 | 1.0 | 2.0 | 0.00 | 0.17 | 0.00 | 83 | 1017.3 |
| 20260508041914 | 54 | 167 | 0.0 | 5.0 | 0.00 | 0.17 | 0.00 | 83 | 1017.3 |
| 20260508041415 | 54 | 130 | 0.0 | 5.0 | 0.00 | 0.17 | 0.00 | 83 | 1017.4 |
| 20260508040913 | 53 | 105 | 2.0 | 5.0 | 0.00 | 0.17 | 0.00 | 85 | 1017.3 |
| 20260508040413 | 53 | 177 | 0.0 | 2.0 | 0.00 | 0.17 | 0.00 | 87 | 1017.6 |
| 20260508035413 | 53 | 231 | 0.0 | 3.0 | 0.00 | 0.17 | 0.00 | 87 | 1017.3 |
| 20260508034913 | 53 | 266 | 0.0 | 3.0 | 0.00 | 0.17 | 0.00 | 87 | 1017.3 |
| 20260508034412 | 52 | 61 | 1.0 | 3.0 | 0.00 | 0.17 | 0.00 | 88 | 1017.3 |
| 20260508033913 | 52 | 66 | 1.0 | 2.0 | 0.00 | 0.17 | 0.00 | 90 | 1017.3 |
| 20260508033414 | 52 | 202 | 0.0 | 1.0 | 0.00 | 0.17 | 0.00 | 89 | 1017.6 |
| 20260508032915 | 52 | 250 | 0.0 | 1.0 | 0.00 | 0.17 | 0.00 | 89 | 1017.3 |
| 20260508032413 | 52 | 70 | 1.0 | 1.0 | 0.00 | 0.17 | 0.00 | 89 | 1017.3 |
| 20260508031913 | 52 | 199 | 0.0 | 1.0 | 0.00 | 0.17 | 0.00 | 88 | 1017.3 |
| 20260508031413 | 53 | 154 | 0.0 | 1.0 | 0.00 | 0.17 | 0.00 | 87 | 1017.3 |
| 20260508030413 | 53 | 86 | 0.0 | 2.0 | 0.00 | 0.17 | 0.00 | 87 | 1017.3 |
| 20260508025914 | 53 | 215 | 0.0 | 2.0 | 0.00 | 0.17 | 0.00 | 88 | 1017.3 |
| 20260508025414 | 52 | 82 | 0.0 | 3.0 | 0.00 | 0.17 | 0.00 | 89 | 1017.3 |
| 20260508024913 | 52 | 36 | 0.0 | 3.0 | 0.00 | 0.17 | 0.00 | 90 | 1017.3 |
| 20260508024413 | 52 | 238 | 0.0 | 2.0 | 0.00 | 0.17 | 0.00 | 91 | 1017.3 |
| 20260508023913 | 52 | 238 | 1.0 | 2.0 | 0.00 | 0.17 | 0.00 | 91 | 1017.3 |
| 20260508023413 | 52 | 178 | 0.0 | 1.0 | 0.00 | 0.17 | 0.00 | 91 | 1017.3 |
| 20260508022912 | 52 | 33 | 0.0 | 1.0 | 0.00 | 0.17 | 0.00 | 91 | 1017.3 |
| 20260508022413 | 52 | 33 | 0.0 | 1.0 | 0.00 | 0.17 | 0.00 | 91 | 1017.3 |
| 20260508021413 | 52 | 34 | 0.0 | 1.0 | 0.00 | 0.17 | 0.00 | 91 | 1017.5 |
| 20260508020914 | 52 | 207 | 0.0 | 1.0 | 0.00 | 0.17 | 0.00 | 91 | 1017.3 |
| 20260508020413 | 52 | 207 | 0.0 | 1.0 | 0.00 | 0.17 | 0.00 | 91 | 1017.3 |
| 20260508015913 | 52 | 75 | 0.0 | 1.0 | 0.00 | 0.17 | 0.00 | 91 | 1017.3 |
| 20260508015414 | 52 | 213 | 0.0 | 1.0 | 0.00 | 0.17 | 0.00 | 91 | 1017.3 |
| 20260508014913 | 52 | 73 | 0.0 | 1.0 | 0.00 | 0.17 | 0.00 | 91 | 1017.3 |
| 20260508014414 | 52 | 85 | 0.0 | 2.0 | 0.00 | 0.17 | 0.00 | 91 | 1017.3 |
| 20260508013913 | 52 | 202 | 1.0 | 2.0 | 0.00 | 0.17 | 0.00 | 91 | 1017.3 |
| 20260508013414 | 52 | 68 | 1.0 | 2.0 | 0.00 | 0.17 | 0.00 | 91 | 1017.3 |
| 20260508012915 | 52 | 192 | 0.0 | 1.0 | 0.00 | 0.17 | 0.00 | 91 | 1017.3 |
| 20260508012414 | 52 | 201 | 0.0 | 1.0 | 0.00 | 0.17 | 0.00 | 91 | 1017.3 |
| 20260508011913 | 52 | 201 | 0.0 | 1.0 | 0.00 | 0.17 | 0.00 | 91 | 1017.3 |
| 20260508010913 | 52 | 192 | 0.0 | 0.0 | 0.00 | 0.17 | 0.00 | 91 | 1017.3 |
| 20260508005414 | 52 | 247 | 0.0 | 1.0 | 0.00 | 0.17 | 0.00 | 92 | 1016.9 |
| 20260508004413 | 52 | 248 | 0.0 | 0.0 | 0.00 | 0.17 | 0.00 | 91 | 1017.3 |
| 20260508003913 | 52 | 248 | 0.0 | 0.0 | 0.00 | 0.17 | 0.00 | 91 | 1016.9 |
| 20260508002913 | 52 | 247 | 0.0 | 1.0 | 0.00 | 0.17 | 0.00 | 91 | 1016.9 |
| 20260508002413 | 52 | 247 | 0.0 | 1.0 | 0.00 | 0.17 | 0.00 | 91 | 1016.9 |
| 20260508001913 | 52 | 247 | 0.0 | 1.0 | 0.00 | 0.17 | 0.00 | 91 | 1017.0 |
| 20260508001413 | 53 | 247 | 0.0 | 1.0 | 0.00 | 0.17 | 0.00 | 90 | 1016.9 |
| 20260508000915 | 53 | 247 | 1.0 | 1.0 | 0.00 | 0.17 | 0.00 | 90 | 1016.9 |
| 20260508000413 | 53 | 165 | 0.0 | 1.0 | 0.00 | 0.17 | 0.00 | 90 | 1016.9 |
| 20260507235913 | 53 | 81 | 0.0 | 1.0 | 0.00 | 0.17 | 0.00 | 90 | 1016.9 |
| 20260507235416 | 53 | 216 | 0.0 | 1.0 | 0.00 | 0.17 | 0.00 | 90 | 1016.9 |
| 20260507234913 | 53 | 216 | 1.0 | 1.0 | 0.00 | 0.17 | 0.00 | 91 | 1016.9 |
| 20260507233913 | 53 | 59 | 0.0 | 1.0 | 0.00 | 0.17 | 0.00 | 91 | 1016.7 |
| 20260507233413 | 53 | 69 | 0.0 | 1.0 | 0.00 | 0.17 | 0.00 | 91 | 1016.8 |
| 20260507232413 | 53 | 58 | 0.0 | 0.0 | 0.00 | 0.17 | 0.00 | 91 | 1016.9 |
| 20260507231914 | 53 | 58 | 0.0 | 1.0 | 0.00 | 0.17 | 0.00 | 91 | 1016.9 |
| 20260507231413 | 53 | 58 | 0.0 | 1.0 | 0.00 | 0.18 | 0.00 | 91 | 1016.7 |
| 20260507230913 | 53 | 53 | 0.0 | 1.0 | 0.00 | 0.18 | 0.00 | 91 | 1016.9 |
| 20260507230413 | 53 | 53 | 1.0 | 1.0 | 0.00 | 0.18 | 0.00 | 91 | 1017.2 |
| 20260507225913 | 53 | 114 | 0.0 | 1.0 | 0.00 | 0.18 | 0.00 | 91 | 1017.2 |
| 20260507225415 | 53 | 195 | 0.0 | 1.0 | 0.00 | 0.18 | 0.00 | 91 | 1017.3 |
| 20260507224913 | 53 | 198 | 0.0 | 1.0 | 0.00 | 0.18 | 0.00 | 91 | 1017.3 |
| 20260507223913 | 53 | 84 | 1.0 | 1.0 | 0.00 | 0.18 | 0.00 | 90 | 1017.0 |
| 20260507223413 | 54 | 92 | 0.0 | 0.0 | 0.00 | 0.18 | 0.00 | 90 | 1017.2 |
| 20260507222913 | 54 | 92 | 0.0 | 0.0 | 0.00 | 0.18 | 0.00 | 90 | 1016.9 |
| 20260507222414 | 54 | 92 | 0.0 | 1.0 | 0.00 | 0.18 | 0.00 | 90 | 1016.9 |
| 20260507221913 | 54 | 332 | 0.0 | 1.0 | 0.00 | 0.18 | 0.00 | 90 | 1016.8 |
| 20260507221413 | 54 | 314 | 0.0 | 1.0 | 0.00 | 0.18 | 0.00 | 89 | 1016.8 |
| 20260507220913 | 54 | 19 | 0.0 | 0.0 | 0.00 | 0.18 | 0.00 | 90 | 1016.9 |
| 20260507220414 | 54 | 19 | 0.0 | 1.0 | 0.00 | 0.18 | 0.00 | 89 | 1016.9 |
| 20260507215913 | 54 | 56 | 0.0 | 1.0 | 0.00 | 0.18 | 0.18 | 89 | 1016.6 |
| 20260507215413 | 54 | 69 | 0.0 | 1.0 | 0.00 | 0.18 | 0.18 | 89 | 1016.9 |
| 20260507214913 | 54 | 60 | 0.0 | 1.0 | 0.00 | 0.18 | 0.18 | 89 | 1016.6 |
| 20260507214415 | 54 | 77 | 0.0 | 0.0 | 0.00 | 0.18 | 0.18 | 90 | 1016.6 |
| 20260507213913 | 54 | 144 | 0.0 | 0.0 | 0.00 | 0.18 | 0.18 | 90 | 1016.6 |
| 20260507213414 | 54 | 81 | 0.0 | 0.0 | 0.00 | 0.18 | 0.18 | 90 | 1016.6 |
| 20260507212913 | 54 | 81 | 0.0 | 0.0 | 0.00 | 0.18 | 0.18 | 90 | 1016.5 |
| 20260507212413 | 55 | 81 | 0.0 | 0.0 | 0.00 | 0.18 | 0.18 | 90 | 1016.6 |
| 20260507211413 | 55 | 82 | 0.0 | 0.0 | 0.00 | 0.18 | 0.18 | 90 | 1016.6 |
| 20260507210914 | 55 | 167 | 0.0 | 0.0 | 0.00 | 0.18 | 0.18 | 90 | 1016.6 |
| 20260507210414 | 55 | 99 | 0.0 | 0.0 | 0.00 | 0.18 | 0.18 | 90 | 1016.6 |
| 20260507205914 | 55 | 99 | 0.0 | 0.0 | 0.00 | 0.18 | 0.18 | 90 | 1016.6 |
| 20260507205413 | 55 | 113 | 0.0 | 0.0 | 0.00 | 0.18 | 0.18 | 90 | 1016.6 |
| 20260507204913 | 55 | 190 | 0.0 | 0.0 | 0.00 | 0.18 | 0.18 | 90 | 1016.6 |
| 20260507204413 | 55 | 74 | 0.0 | 0.0 | 0.00 | 0.18 | 0.18 | 90 | 1016.6 |
| 20260507203914 | 55 | 74 | 0.0 | 0.0 | 0.00 | 0.18 | 0.18 | 89 | 1016.6 |
| 20260507203414 | 55 | 64 | 0.0 | 0.0 | 0.00 | 0.18 | 0.18 | 90 | 1016.4 |
| 20260507202913 | 55 | 80 | 0.0 | 1.0 | 0.00 | 0.18 | 0.18 | 89 | 1016.3 |
| 20260507202414 | 55 | 82 | 0.0 | 1.0 | 0.00 | 0.18 | 0.18 | 89 | 1016.3 |
| 20260507201413 | 55 | 101 | 0.0 | 0.0 | 0.00 | 0.18 | 0.18 | 89 | 1015.9 |
| 20260507200413 | 56 | 138 | 0.0 | 0.0 | 0.00 | 0.18 | 0.18 | 89 | 1015.9 |
| 20260507195415 | 56 | 173 | 0.0 | 2.0 | 0.00 | 0.18 | 0.18 | 88 | 1015.9 |